Weather observations for the past three days for
Adrian, Lenawee County Airport
Imperial (Metric)
Date Time (edt) Wind (mph) Vis. (mi.) Weather Sky Cond. Temperature (ºF) Relative Humidity Wind Chill (°F) Heat Index (°F) Pressure Precipitation (in)
Air Dwpt 6 hour altimeter (in) sea level (mb) 1 hr 3 hr 6 hr
Max. Min.
15 04:53 S 6 7.00 Partly Cloudy FEW013 SCT018 72 70 94% 29.86 1010.6
15 03:53 S 5 6.00 Fog/Mist FEW048 72 69.1 91% 29.87 1011.1
15 02:53 S 5 8.00 Fair CLR 72 69.1 91% 29.89 1011.6
15 01:53 S 5 9.00 A Few Clouds FEW033 72 70 79 71.1 94% 29.91 1012.2
15 00:53 SW 5 10.00 Fair CLR 71.1 68 90% 29.94 1013.4
14 23:53 Calm 10.00 Fair CLR 73 69.1 87% 29.94 1013.3
14 22:53 SW 3 10.00 Fair CLR 72 68 87% 29.93 1012.9
14 21:53 Calm 10.00 Fair CLR 73.9 68 82% 29.94 1013.3
14 20:53 SW 5 10.00 Fair CLR 77 68 74% 79 29.94 1013.5
14 19:53 SW 8 10.00 Fair CLR 79 68 84 78.1 69% 81 29.95 1013.6
14 18:53 W 8 10.00 Fair CLR 79 68 69% 81 29.95 1013.7
14 17:53 SW 12 10.00 Fair CLR 79 70 74% 82 29.94 1013.5
14 16:53 W 10 G 20 10.00 Fair CLR 81 73 77% 86 29.95 1013.8
14 15:53 SW 9 10.00 Fair CLR 82 73.9 77% 88 29.95 1013.5
14 14:53 SW 8 10.00 Mostly Cloudy FEW024 SCT046 BKN060 82 73 74% 87 29.96 1014.1
14 13:53 S 10 10.00 A Few Clouds FEW021 82.9 73 82.9 71.1 72% 89 29.95 1013.6
14 12:53 SW 13 G 21 10.00 Overcast FEW021 BKN026 OVC040 80.1 71.1 74% 84 30.01 1015.7
14 11:53 SW 12 G 20 10.00 Partly Cloudy SCT021 79 70 74% 82 30.03 1016.3
14 10:53 SW 14 10.00 Fair CLR 77 69.1 77% 79 30.03 1016.4
14 09:53 SW 9 10.00 Partly Cloudy FEW090 SCT120 73.9 68 82% 30.04 1016.6
14 08:53 SW 3 10.00 Overcast SCT070 OVC100 71.1 66.9 87% 30.06 1017.5
14 07:53 SW 8 10.00 Mostly Cloudy BKN110 72 66 73 71.1 82% 30.05 1017.0
14 06:53 W 6 10.00 Light Rain CLR 72 66.9 84% 30.05 1016.9
14 05:53 SW 6 8.00 A Few Clouds FEW040 71.1 66.9 87% 30.06 1017.2
14 04:53 SW 7 10.00 A Few Clouds FEW100 72 66 82% 30.06 1017.2
14 03:53 SW 3 10.00 Fair CLR 72 66.9 84% 30.06 1017.4
14 02:53 S 5 10.00 Fair CLR 71.1 66.9 87% 30.07 1017.6
14 01:53 Calm 10.00 Fair CLR 72 68 84.9 71.1 87% 30.09 1018.2
14 00:53 SW 3 10.00 Fair CLR 72 68 87% 30.11 1018.9
13 23:53 Calm 10.00 Fair CLR 73.9 69.1 85% 30.12 1019.2
13 22:53 Calm 10.00 Fair CLR 75.9 70 82% 77 30.12 1019.2
13 21:53 Calm 10.00 Fair CLR 77 70 79% 79 30.11 1019.0
13 20:53 SW 3 10.00 Fair CLR 82 68 63% 85 30.12 1019.4
13 19:53 SW 3 10.00 Fair CLR 84.9 66.9 87.1 84.9 55% 88 30.13 1019.6
13 18:53 SW 5 10.00 Partly Cloudy SCT055 86 66.9 53% 89 30.12 1019.6
13 17:53 SW 7 10.00 Fair CLR 86 64.9 49% 88 30.13 1019.9
13 16:53 W 8 10.00 Fair CLR 87.1 66.9 51% 90 30.15 1020.4
13 15:53 SW 3 10.00 Fair CLR 86 64.9 49% 88 30.16 1020.7
13 14:53 S 5 10.00 Fair CLR 86 66.9 53% 89 30.16 1020.8
13 13:53 Vrbl 3 10.00 Fair CLR 84.9 66.9 84.9 71.1 55% 88 30.18 1021.5
13 12:53 S 6 10.00 Partly Cloudy FEW033 SCT060 84 69.1 61% 88 30.2 1022.0
13 11:53 Calm 10.00 Fair CLR 82 68 63% 85 30.19 1021.9
13 10:53 Calm 10.00 Fair CLR 80.1 69.1 69% 83 30.2 1022.3
13 09:53 SE 6 10.00 Fair CLR 77 66.9 71% 79 30.21 1022.5
13 08:53 Calm 10.00 Fair CLR 75 70 84% 75 30.21 1022.5
13 07:53 Calm 6.00 Fog/Mist CLR 71.1 66.9 71.1 64.9 87% 30.2 1022.1
13 06:53 Calm 6.00 Fog/Mist CLR 66 64 93% 30.19 1022.0
13 05:53 Calm 5.00 Fog/Mist CLR 64.9 63 93% 30.18 1021.7
13 04:53 Calm 7.00 Fair CLR 66.9 64 91% 30.17 1021.3
13 03:53 Calm 8.00 Fair CLR 66.9 64.9 93% 30.17 1021.0
13 02:53 N 5 8.00 Fair CLR 66.9 64.9 93% 30.17 1021.2
13 01:53 N 3 8.00 Fair CLR 68 64.9 79 68 90% 30.17 1021.0
13 00:53 Calm 10.00 Fair CLR 70 66 87% 30.17 1021.2
12 23:53 Calm 10.00 Fair CLR 71.1 66.9 87% 30.16 1021.0
12 22:53 Calm 10.00 Fair CLR 73 66.9 81% 30.16 1020.8
12 21:53 SE 5 10.00 Fair CLR 73.9 66.9 79% 30.15 1020.5
12 20:53 E 6 10.00 Fair CLR 75.9 66.9 74% 77 30.14 1020.1
12 19:53 E 6 10.00 Fair CLR 79 68 84 79 69% 81 30.12 1019.7
12 18:53 SE 6 10.00 Fair CLR 81 68 65% 84 30.12 1019.3
12 17:53 E 3 10.00 Partly Cloudy SCT034 81 69.1 67% 84 30.12 1019.4
12 16:53 E 5 10.00 Mostly Cloudy SCT036 BKN048 82 68 63% 85 30.12 1019.4
12 15:53 E 5 10.00 Fair CLR 82 68 63% 85 30.13 1019.7
12 14:53 Calm 10.00 Overcast OVC055 81 66.9 62% 83 30.14 1020.1
12 13:53 SE 8 10.00 Partly Cloudy SCT060 81 68 81 69.1 65% 84 30.15 1020.4 0.1
12 12:53 E 8 10.00 Overcast OVC060 75.9 66 72% 77 30.16 1020.9
12 11:53 E 8 10.00 Overcast BKN070 OVC100 73.9 66.9 79% 30.17 1021.1
12 10:53 E 6 10.00 Overcast OVC070 71.1 66.9 87% 30.17 1021.1 0.03 0.1
12 09:53 Calm 10.00 Overcast SCT060 OVC080 70 66 87% 30.17 1021.4 0.05
12 08:53 SE 5 7.00 Light Rain OVC110 69.1 64.9 87% 30.16 1021.1 0.02
12 07:53 Calm 5.00 Light Rain Fog/Mist OVC110 69.1 66 71.1 69.1 90% 30.15 1020.6 0.03 0.03
12 06:53 Calm 10.00 Overcast OVC100 69.1 64.9 87% 30.14 1020.0
12 05:53 Calm 10.00 Overcast OVC110 69.1 64.9 87% 30.12 1019.5
Date Time (edt) Wind (mph) Vis. (mi.) Weather Sky Cond. Air Dwpt Max. Min. Relative Humidity Wind Chill (°F) Heat Index (°F) altimeter (in) sea level (mb) 1 hr 3 hr 6 hr
6 hour
Temperature (ºF) Pressure Precipitation (in)